Weather History for KDEC - December, 2013

Change the Weather History Date:

Monday, December 2, 2013

  Actual Average Record
Temperature  
Mean Temperature 39 °F 35 °F  
Max Temperature 48 °F 43 °F 67 °F (2012)
Min Temperature 30 °F 27 °F 14 °F (2006)
Degree Days  
Heating Degree Days 26 30  
Month to date heating degree days 50 59  
Since 1 July heating degree days 1198 1140  
Cooling Degree Days 0 0  
Month to date cooling degree days 0 0  
Year to date cooling degree days 1079 1048  
Moisture  
Dew Point 36 °F    
Average Humidity 79    
Maximum Humidity 92    
Minimum Humidity 66    
Precipitation  
Precipitation T in 0.09 in 0.42 in (2007)
Month to date precipitation T 0.17  
Year to date precipitation 32.02 36.08  
Sea Level Pressure  
Sea Level Pressure 29.80 in    
Wind  
Wind Speed 6 mph (East)    
Max Wind Speed 12 mph    
Max Gust Speed 14 mph    
Visibility 5 miles    
Events Rain    
T = Trace of Precipitation, MM = Missing Value Source: NWS Daily Summary

Daily Weather History Graph

Daily Weather History Graph

Search for Another Location

Airport or City:

Trip Planner

Search our weather history database for the weather conditions in past years. The results will help you decide how hot, cold, wet, or windy it might be!

Date:

Astronomy

Dec. 02, 2013 Rise Set
Actual Time 6:58 AM CST 4:30 PM CST
Civil Twilight 6:28 AM CST 5:00 PM CST
Nautical Twilight 5:55 AM CST 5:34 PM CST
Astronomical Twilight 5:22 AM CST 6:07 PM CST
Moon 6:23 AM CST (12/2) 4:33 PM CST (12/2)
Length of Visible Light 10h 32m
Length of Day
9h 32m
Waning Crescent, 0% of the Moon is Illuminated
Dec 2
Waning Crescent
Dec 2
New
Dec 9
First Quarter
Dec 17
Full
Dec 25
Last Quarter

Hourly Weather History & Observations

Time (CST) Temp. Windchill Dew Point Humidity Pressure Visibility Wind Dir Wind Speed Gust Speed Precip Events Conditions
12:54 AM 33.1 °F 27.7 °F 30.0 °F 89% 29.94 in 4.0 mi ENE 5.8 mph - N/A   Clear
1:54 AM 34.0 °F 29.8 °F 30.9 °F 89% 29.94 in 4.0 mi ENE 4.6 mph - N/A   Mostly Cloudy
2:54 AM 34.0 °F 28.8 °F 30.9 °F 89% 29.93 in 5.0 mi East 5.8 mph - N/A   Overcast
3:54 AM 30.9 °F 26.2 °F 28.0 °F 89% 29.92 in 4.0 mi NE 4.6 mph - N/A   Mostly Cloudy
4:54 AM 33.1 °F 26.9 °F 30.0 °F 89% 29.89 in 4.0 mi East 6.9 mph - N/A   Mostly Cloudy
5:54 AM 33.1 °F 27.7 °F 30.0 °F 89% 29.88 in 5.0 mi East 5.8 mph - N/A   Overcast
6:54 AM 34.0 °F 28.0 °F 30.0 °F 85% 29.88 in 5.0 mi East 6.9 mph - N/A   Overcast
7:54 AM 35.1 °F 31.0 °F 30.9 °F 85% 29.88 in 4.0 mi East 4.6 mph - N/A   Overcast
8:54 AM 37.0 °F 31.0 °F 32.0 °F 82% 29.86 in 4.0 mi East 8.1 mph - N/A   Haze
9:54 AM 39.9 °F 35.1 °F 34.0 °F 79% 29.86 in 5.0 mi ESE 6.9 mph - N/A   Haze
10:54 AM 43.0 °F 38.2 °F 35.1 °F 74% 29.83 in 6.0 mi East 8.1 mph - N/A   Haze
11:54 AM 46.0 °F 41.9 °F 37.0 °F 71% 29.80 in 6.0 mi ESE 8.1 mph - N/A   Haze
12:44 PM 48.2 °F - 37.4 °F 66% 29.76 in 7.0 mi ESE 9.2 mph - N/A   Mostly Cloudy
12:54 PM 48.0 °F - 37.9 °F 68% 29.77 in 7.0 mi ESE 8.1 mph - N/A   Overcast
1:54 PM 46.9 °F - 39.0 °F 74% 29.76 in 6.0 mi ESE 10.4 mph - N/A   Haze
2:54 PM 46.9 °F - 39.9 °F 77% 29.75 in 5.0 mi East 6.9 mph - 0.00 in Rain Light Rain
3:54 PM 46.9 °F - 41.0 °F 80% 29.75 in 5.0 mi East 8.1 mph - 0.00 in   Haze
4:54 PM 46.0 °F 42.5 °F 41.0 °F 83% 29.75 in 7.0 mi ESE 6.9 mph - N/A   Overcast
5:52 PM 44.6 °F 40.7 °F 41.0 °F 87% 29.73 in 6.0 mi ESE 6.9 mph - N/A   Overcast
5:54 PM 44.1 °F 40.1 °F 41.0 °F 89% 29.75 in 6.0 mi ESE 6.9 mph - N/A   Overcast
6:54 PM 42.1 °F 38.4 °F 39.0 °F 89% 29.75 in 4.0 mi ESE 5.8 mph - N/A   Mostly Cloudy
7:54 PM 39.9 °F 37.8 °F 37.0 °F 89% 29.75 in 3.0 mi East 3.5 mph - N/A   Mostly Cloudy
8:54 PM 43.0 °F - 39.9 °F 89% 29.75 in 4.0 mi Calm Calm - N/A   Overcast
9:04 PM 42.8 °F 40.1 °F 39.2 °F 87% 29.73 in 4.0 mi East 4.6 mph - N/A   Overcast
9:54 PM 39.0 °F 34.0 °F 37.0 °F 93% 29.74 in 4.0 mi ESE 6.9 mph - N/A   Scattered Clouds
10:29 PM 39.2 °F 35.0 °F 37.4 °F 93% 29.72 in 4.0 mi SE 5.8 mph - N/A   Mostly Cloudy
10:54 PM 39.0 °F 34.0 °F 37.0 °F 93% 29.73 in 4.0 mi SE 6.9 mph - N/A   Scattered Clouds
11:54 PM 33.1 °F - 33.1 °F 100% 29.72 in 3.0 mi Calm Calm - N/A   Clear